Location: Chervonnoye
(48.6000°N, 34.4000°E)
Time: 05:01:35
(UTC+00:00)

USA 281 - Pass Details

Date: 23 November 2020
Orbit: 1074 x 1084 km, 106.0° (Epoch: 08 January)

Event Time Altitude Azimuth Distance (km) Brightness Sun altitude
Rises 15:11:43 0° 132° (SE) 3,875 5.8 -12.5°
Reaches altitude 10° 15:14:18 10° 128° (SE) 2,921 5.2 -12.9°
Maximum altitude 15:20:36 51° 54° (NE) 1,338 3.4 -13.9°
Drops below altitude 10° 15:26:54 10° 342° (NNW) 2,929 5.6 -14.9°
Sets 15:29:29 0° 337° (NNW) 3,887 6.3 -15.3°
